^^
Meteo Knjazevac Station Historical Data
Daily Summary for August 9, 2021 Units:  Metric    English   Both
Daily Weekly Monthly Yearly Custom
  High: Low: Average:
Temperature: 15 °C 12.3 °C 13.4 °C
Dew Point: 8.9 °C 8.7 °C 8.8 °C
Humidity: 79% 67% 74%
Wind Speed: 3.2km/h 0km/h 1km/h
Wind Gust: 8km/h - -
Wind- - SW
Pressure: 1022.9 hPa 1022.6 hPa -
Precipitation: 0 mm    
Historical Graphs
 
 
Tabular Data for August 9, 2021
Time Temperature Dew Point Pressure Wind Wind Speed Wind Gust Humidity Rainfall Rate (Hourly) solar Conditions
00:00 15 °C 8.9 °C 1022.9 hPa West 3.2 km/h 4.8 km/h 67% 0 mm 0 W/m2
00:10 15 °C 8.9 °C 1022.9 hPa WNW 1.6 km/h 3.2 km/h 67% 0 mm 0 W/m2
00:20 14.8 °C 8.9 °C 1022.9 hPa Calm   4.8 km/h 68% 0 mm 0 W/m2
00:30 14.7 °C 8.8 °C 1022.9 hPa Calm   3.2 km/h 68% 0 mm 0 W/m2
00:40 14.5 °C 8.9 °C 1022.9 hPa SSE 1.6 km/h 4.8 km/h 69% 0 mm 0 W/m2
00:50 14.3 °C 8.9 °C 1022.9 hPa Calm   6.4 km/h 70% 0 mm 0 W/m2
01:00 14.1 °C 8.7 °C 1022.9 hPa SE 1.6 km/h 8 km/h 70% 0 mm 0 W/m2
01:10 13.9 °C 8.9 °C 1022.9 hPa SSW 1.6 km/h 4.8 km/h 72% 0 mm 0 W/m2
01:20 13.8 °C 8.8 °C 1022.6 hPa Calm   8 km/h 72% 0 mm 0 W/m2
01:30 13.7 °C 8.9 °C 1022.6 hPa SE 3.2 km/h 4.8 km/h 73% 0 mm 0 W/m2
01:40 13.6 °C 8.8 °C 1022.6 hPa South 1.6 km/h 6.4 km/h 73% 0 mm 0 W/m2
01:50 13.5 °C 8.8 °C 1022.6 hPa NNW 1.6 km/h 4.8 km/h 73% 0 mm 0 W/m2
02:00 13.5 °C 8.9 °C 1022.6 hPa Calm   3.2 km/h 74% 0 mm 0 W/m2
02:10 13.4 °C 8.8 °C 1022.6 hPa Calm   3.2 km/h 74% 0 mm 0 W/m2
02:20 13.3 °C 8.8 °C 1022.6 hPa Calm   3.2 km/h 74% 0 mm 0 W/m2
02:30 13.2 °C 8.7 °C 1022.6 hPa Calm   3.2 km/h 74% 0 mm 0 W/m2
02:40 13.2 °C 8.9 °C 1022.6 hPa West 1.6 km/h 3.2 km/h 75% 0 mm 0 W/m2
02:50 13.2 °C 8.9 °C 1022.6 hPa Calm   1.6 km/h 75% 0 mm 0 W/m2
03:00 13.1 °C 8.8 °C 1022.6 hPa SW 3.2 km/h 6.4 km/h 75% 0 mm 0 W/m2
03:10 13 °C 8.9 °C 1022.6 hPa Calm   4.8 km/h 76% 0 mm 0 W/m2
03:20 12.9 °C 8.9 °C 1022.6 hPa Calm   4.8 km/h 77% 0 mm 0 W/m2
03:30 12.8 °C 8.9 °C 1022.6 hPa Calm   3.2 km/h 77% 0 mm 0 W/m2
03:40 12.8 °C 8.9 °C 1022.6 hPa North 1.6 km/h 4.8 km/h 77% 0 mm 0 W/m2
03:50 12.6 °C 8.9 °C 1022.6 hPa South 1.6 km/h 4.8 km/h 78% 0 mm 0 W/m2
04:00 12.6 °C 8.9 °C 1022.6 hPa North 1.6 km/h 6.4 km/h 78% 0 mm 0 W/m2
04:10 12.5 °C 8.8 °C 1022.6 hPa Calm   8 km/h 78% 0 mm 0 W/m2
04:20 12.4 °C 8.7 °C 1022.6 hPa Calm   3.2 km/h 78% 0 mm 0 W/m2
04:30 12.3 °C 8.8 °C 1022.6 hPa NW 1.6 km/h 4.8 km/h 79% 0 mm 0 W/m2
04:40 12.3 °C 8.8 °C 1022.6 hPa Calm   3.2 km/h 79% 0 mm 0 W/m2
Knjazevac, Serbia
Compliments of Weather Underground - 2 mb